104P/Kowal 2 (2022)

Japanese version
Home page
Updated on April 15, 2023

---------------------------------------------------------------------

* Profile

* Pictures

* Orbital Elements

Epoch 2022 Aug. 9.0 TT = JDT 2459800.5
T 2022 Jan. 11.63017 TT                                 Rudenko
q   1.0729986            (2000.0)            P               Q
n   0.17152461     Peri.  227.25282     +0.26957072     -0.96190859
a   3.2081285      Node   207.20727     +0.91000014     +0.26988701
e   0.6655375      Incl.    5.70197     +0.31501010     +0.04350707
P   5.75
From 1624 observations 2016 Jan. 3-2022 June 3, mean residual 0".8.
     Nongravitational parameters A1 = +0.68, A2 = -0.4346.

* Finding Charts

* Magnitudes Graph

        m1 = 9.5 + 5 log d + 30.0 log r(t - 15)  [ ,0]  (             - 2022 Jan. 11)
        m1 = 9.5 + 5 log d + 20.0 log r(t - 30)  [0, ]  (2022 Jan. 11 -             )

---------------------------------------------------------------------

The orbital elements are published on M.P.E.C. 2022-L66.
The charts are made with StellaNavigator Ver.10 (AstroArts).
The magnitudes graphs are made with Comet for Windows.

---------------------------------------------------------------------

Copyright(C) Seiichi Yoshida (comet@aerith.net). All rights reserved.